TimePST,TemperatureF,Dew PointF,Humidity,Sea Level PressureIn,VisibilityMPH,Wind Direction,Wind SpeedMPH,Gust SpeedMPH,PrecipitationIn,Events,Conditions,WindDirDegrees,DateUTC
12:56 AM,27.0,21.0,78,30.32,10.0,Calm,Calm,-,N/A,,Overcast,0,2013-02-24 08:56:00
1:56 AM,26.1,21.0,81,30.32,10.0,Calm,Calm,-,N/A,,Mostly Cloudy,0,2013-02-24 09:56:00
2:56 AM,23.0,21.0,92,30.35,10.0,Calm,Calm,-,N/A,,Clear,0,2013-02-24 10:56:00
3:47 AM,24.8,21.2,86,30.24,10.0,Calm,Calm,-,N/A,,Mostly Cloudy,0,2013-02-24 11:47:00
3:56 AM,25.0,21.0,85,30.34,10.0,Calm,Calm,-,N/A,,Overcast,0,2013-02-24 11:56:00
4:56 AM,25.0,21.9,88,30.35,10.0,Calm,Calm,-,N/A,,Overcast,0,2013-02-24 12:56:00
5:56 AM,25.0,21.9,88,30.36,10.0,Calm,Calm,-,N/A,,Overcast,0,2013-02-24 13:56:00
6:44 AM,21.2,19.4,93,30.26,10.0,Calm,Calm,-,N/A,,Scattered Clouds,0,2013-02-24 14:44:00
6:56 AM,21.9,18.0,85,30.37,10.0,Calm,Calm,-,N/A,,Clear,0,2013-02-24 14:56:00
7:56 AM,21.0,19.0,92,30.37,10.0,Calm,Calm,-,N/A,,Clear,0,2013-02-24 15:56:00
8:56 AM,28.9,21.0,72,30.36,10.0,Calm,Calm,-,N/A,,Clear,0,2013-02-24 16:56:00
9:56 AM,30.9,21.9,69,30.35,10.0,Calm,Calm,-,N/A,,Overcast,0,2013-02-24 17:56:00
10:56 AM,32.0,21.9,66,30.34,10.0,Calm,Calm,-,N/A,,Overcast,0,2013-02-24 18:56:00
11:13 AM,33.8,21.2,60,30.25,10.0,Variable,4.6,-,N/A,,Overcast,0,2013-02-24 19:13:00
11:20 AM,33.8,21.2,60,30.25,10.0,Calm,Calm,-,N/A,,Overcast,0,2013-02-24 19:20:00
11:56 AM,34.0,21.9,61,30.33,10.0,Calm,Calm,-,N/A,,Mostly Cloudy,0,2013-02-24 19:56:00
12:56 PM,35.1,21.9,59,30.31,10.0,Calm,Calm,-,N/A,,Scattered Clouds,0,2013-02-24 20:56:00
1:56 PM,37.0,21.9,54,30.28,10.0,Calm,Calm,-,N/A,,Clear,0,2013-02-24 21:56:00
2:56 PM,36.0,23.0,59,30.28,10.0,Calm,Calm,-,N/A,,Overcast,0,2013-02-24 22:56:00
3:56 PM,35.1,27.0,72,30.26,10.0,Calm,Calm,-,N/A,,Scattered Clouds,0,2013-02-24 23:56:00
4:56 PM,32.0,25.0,75,30.25,10.0,Calm,Calm,-,N/A,,Clear,0,2013-02-25 00:56:00
5:56 PM,30.9,26.1,82,30.24,10.0,Calm,Calm,-,N/A,,Mostly Cloudy,0,2013-02-25 01:56:00
6:56 PM,28.9,24.1,82,30.23,10.0,Calm,Calm,-,N/A,,Partly Cloudy,0,2013-02-25 02:56:00
7:56 PM,28.0,24.1,85,30.22,10.0,Calm,Calm,-,N/A,,Scattered Clouds,0,2013-02-25 03:56:00
8:56 PM,27.0,21.9,81,30.17,10.0,Calm,Calm,-,N/A,,Clear,0,2013-02-25 04:56:00
9:56 PM,26.1,21.9,84,30.16,10.0,Calm,Calm,-,N/A,,Clear,0,2013-02-25 05:56:00
10:56 PM,27.0,21.9,81,30.13,10.0,Calm,Calm,-,N/A,,Clear,0,2013-02-25 06:56:00
11:56 PM,28.0,21.0,75,30.10,10.0,Calm,Calm,-,N/A,,Clear,0,2013-02-25 07:56:00